GLOBALSTAR M090

Last updated on Sat Sep 05 2026 00:03:16 GMT+0000 (Coordinated Universal Time)

1 38044U 11080E 26247.33154836 -.00000110 00000+0 -34879-4 0 9991 2 38044 52.0113 87.5741 0000922 97.2609 73.9196 12.62268173679703
UTC large
Height (km)
Speed (km/s)
/
Latitude / Longitude
Inclination (degrees)
Orbital Period (minutes)
Azimuth
Elevation
Range (km)
Doppler Factor

Next 0 passes for location: London (51.5072 / 0.1276)

No passes found over London.
GLOBALSTAR M090